Location: Burbank
(38.7788°N, 114.0429°W)
Time: 01:47:14
(UTC+00:00)

Tiros 1 despin weight - Pass Details

Date: 12 May 2026
Orbit: 554 x 591 km, 48.2° (Epoch: 6 June)

Event Time Altitude Azimuth Distance (km) Brightness Sun altitude
Rises 16:55:17 0° 296° (WNW) 2,734 ? 50.3°
Reaches altitude 10° 16:57:55 10° 312° (NW) 1,836 ? 50.7°
Maximum altitude 17:01:16 23° 5° (N) 1,217 ? 51.4°
Drops below altitude 10° 17:04:36 10° 58° (ENE) 1,833 ? 52.0°
Sets 17:07:14 0° 74° (ENE) 2,729 ? 52.4°
